Weather History for Topeka, KS

Change the Weather History Date:

Sunday, June 9, 2013

  Actual Average Record
Temperature  
Mean Temperature 73 °F 72 °F  
Max Temperature 84 °F 83 °F 100 °F (1934)
Min Temperature 62 °F 62 °F 49 °F (1988)
Degree Days  
Heating Degree Days 0 0  
Month to date heating degree days 5 6  
Since 1 June heating degree days 5 6  
Since 1 July heating degree days 4901 5019  
Cooling Degree Days 8 8  
Month to date cooling degree days 25 62  
Year to date cooling degree days 170 188  
Since 1 June cooling degree days 25 62  
Growing Degree Days 24 (Base 50)    
Moisture  
Dew Point 58 °F    
Average Humidity 62    
Maximum Humidity 93    
Minimum Humidity 31    
Precipitation  
Precipitation 0.05 in 0.20 in 2.31 in (2014)
Month to date precipitation 0.84 1.61  
Year to date precipitation 15.17 14.72  
Snow  
Snow 0.00 in 0.00 in T in (1925)
Month to date snowfall 0.0 0.0  
Year to date snowfall 24.2 11.3  
Since 1 July snowfall 29.6 17.8  
Snow Depth 0.00 in    
Sea Level Pressure  
Sea Level Pressure 29.82 in    
Wind  
Wind Speed 8 mph (West)    
Max Wind Speed 24 mph    
Max Gust Speed 33 mph    
Visibility 9 miles    
Events Rain , Thunderstorm    
T = Trace of Precipitation, MM = Missing Value Source: NWS Daily Summary

Daily Weather History Graph

Daily Weather History Graph

Search for Another Location

Airport:

Trip Planner

Search our weather history database for the weather conditions in past years. The results will help you decide how hot, cold, wet, or windy it might be!

Date:

Astronomy

Jun. 09, 2013 Rise Set
Actual Time 5:56 AM CDT 8:47 PM CDT
Civil Twilight 5:24 AM CDT 9:19 PM CDT
Nautical Twilight 4:44 AM CDT 9:59 PM CDT
Astronomical Twilight 3:58 AM CDT 10:46 PM CDT
Moon 6:53 AM CDT (6/9) 9:35 PM CDT (6/9)
Length of Visible Light 15h 55m
Length of Day
14h 51m
New Moon, 1% of the Moon is Illuminated
Jun 9
New Moon
Jun 16
First Quarter
Jun 23
Full
Jun 29
Last Quarter
Jul 8
New

Hourly Weather History & Observations

Time (CDT) Temp. Heat Index Dew Point Humidity Pressure Visibility Wind Dir Wind Speed Gust Speed Precip Events Conditions
12:45 AM 64.9 °F - 62.1 °F 90% 29.88 in 3.0 mi West 9.2 mph - 0.11 in Rain , Thunderstorm Light Rain
12:53 AM 64.9 °F - 62.1 °F 90% 29.86 in 4.0 mi West 5.8 mph - 0.12 in Rain , Thunderstorm Rain
1:02 AM 64.9 °F - 62.1 °F 90% 29.86 in 4.0 mi NNW 3.5 mph - 0.02 in Rain Rain
1:10 AM 64.9 °F - 62.1 °F 90% 29.85 in 6.0 mi North 3.5 mph - 0.04 in Rain Light Rain
1:53 AM 64.0 °F - 63.0 °F 96% 29.81 in 10.0 mi SE 6.9 mph - 0.04 in Rain Light Rain
2:42 AM 64.9 °F - 62.1 °F 90% 29.83 in 10.0 mi ESE 4.6 mph - 0.01 in   Overcast
2:53 AM 64.9 °F - 62.1 °F 90% 29.81 in 10.0 mi ESE 5.8 mph - 0.01 in   Overcast
3:53 AM 66.0 °F - 63.0 °F 90% 29.79 in 10.0 mi Calm Calm - N/A   Overcast
4:53 AM 64.0 °F - 61.0 °F 90% 29.79 in 10.0 mi SSW 6.9 mph - N/A   Clear
5:36 AM 64.9 °F - 61.0 °F 87% 29.83 in 10.0 mi SSW 6.9 mph - N/A   Mostly Cloudy
5:53 AM 64.9 °F - 61.0 °F 87% 29.81 in 10.0 mi SSW 5.8 mph - N/A   Overcast
6:53 AM 64.0 °F - 60.1 °F 87% 29.83 in 10.0 mi WSW 6.9 mph - N/A   Mostly Cloudy
7:07 AM 64.0 °F - 60.1 °F 87% 29.85 in 10.0 mi WSW 3.5 mph - N/A   Scattered Clouds
7:53 AM 64.9 °F - 60.1 °F 84% 29.83 in 10.0 mi SW 6.9 mph - N/A   Clear
8:53 AM 66.9 °F - 59.0 °F 76% 29.84 in 10.0 mi West 9.2 mph - N/A   Clear
9:53 AM 72.0 °F - 59.0 °F 64% 29.83 in 10.0 mi West 10.4 mph - N/A   Clear
10:53 AM 75.0 °F - 57.9 °F 55% 29.82 in 10.0 mi WNW 13.8 mph 20.7 mph N/A   Clear
11:53 AM 78.1 °F - 53.1 °F 42% 29.81 in 10.0 mi West 15.0 mph 26.5 mph N/A   Clear
12:53 PM 80.1 °F 79.9 °F 53.1 °F 39% 29.81 in 10.0 mi NW 15.0 mph - N/A   Clear
1:53 PM 82.0 °F 81.2 °F 53.1 °F 37% 29.81 in 10.0 mi West 15.0 mph 21.9 mph N/A   Partly Cloudy
2:53 PM 80.1 °F - 48.9 °F 34% 29.79 in 10.0 mi WNW 15.0 mph 26.5 mph N/A   Scattered Clouds
3:53 PM 82.9 °F - 48.9 °F 31% 29.78 in 10.0 mi West 12.7 mph 31.1 mph N/A   Clear
4:53 PM 84.0 °F - 50.0 °F 31% 29.77 in 10.0 mi NW 13.8 mph 20.7 mph N/A   Clear
5:53 PM 82.9 °F - 50.0 °F 32% 29.76 in 10.0 mi WNW 12.7 mph 23.0 mph N/A   Clear
6:53 PM 82.0 °F - 50.0 °F 33% 29.76 in 10.0 mi WNW 13.8 mph 21.9 mph N/A   Clear
7:53 PM 79.0 °F - 52.0 °F 39% 29.77 in 10.0 mi WNW 5.8 mph - N/A   Clear
8:53 PM 72.0 °F - 59.0 °F 64% 29.79 in 10.0 mi NNE 5.8 mph - N/A   Clear
9:53 PM 70.0 °F - 60.1 °F 71% 29.81 in 10.0 mi East 3.5 mph - N/A   Clear
10:53 PM 66.0 °F - 61.0 °F 84% 29.84 in 10.0 mi Calm Calm - N/A   Clear
11:53 PM 64.0 °F - 61.0 °F 90% 29.85 in 10.0 mi Calm Calm - N/A   Clear